User: anonymous   Login
Location: Cambridge (historical)
(38.6883°N, 119.0140°W)
Time: 15:48:14
(UTC+00:00)
Language:

XW-2D - Orbit

View from above orbital plane
View from above orbital plane
View from above satellite
View from above satellite

Ground track
Ground track

The orbit data is extracted from the following two-line orbital elements,

1 40907U 15049J   21268.54134873  .00001531  00000-0  80052-4 0  9992
2 40907  97.4881 269.5058 0013126 189.4383 269.2730 15.17328530332779
Epoch (UTC): 25 September 2021 12:59:32
Eccentricity: 0.0013126
inclination: 97.4881°
perigee height: 505 km
apogee height: 523 km
right ascension of ascending node: 269.5058°
argument of perigee: 189.4383°
revolutions per day: 15.17328530
mean anomaly at epoch: 269.2730°
orbit number at epoch: 33277

The dashed part of the orbit path shows where the satellite is in the earth's shadow,  

DLR